Hourly Weather Roundup
Issued by NWS Central Illinois

Home | Current Version | Previous Version | Text Only | Print | Product List | Glossary On
Versions: 1 2 3 4 5 6 7 8 9 10 11 12 13 14 15 16 17 18 19 20 21 22 23 24 25 26 27 28 29 30 31 32 33 34 35 36 37 38 39 40 41 42 43 44 45 46 47 48 49 50
000
NZUS43 KILX 241210
HWRILX

AREA WEATHER ROUNDUP
NATIONAL WEATHER SERVICE, LINCOLN IL
700 AM CDT FRI OCT 24 2014


CITY           SKY/WX    TMP DP  RH WIND       PRES   REMARKS
BLOOMINGTON    CLEAR     47  45  93 SW5       30.08S
6HR MIN TEMP:  47; 6HR MAX TEMP:  54;

CHAMPAIGN      PTCLDY    47  45  93 S6        30.08F
6HR MIN TEMP:  44; 6HR MAX TEMP:  51; 6HR PCP:  0.05;

DECATUR        CLEAR     48  44  86 SW5       30.08F
6HR MIN TEMP:  47; 6HR MAX TEMP:  55;

FLORA          PTCLDY    49  47  93 CALM      30.10F
6HR MIN TEMP:  45; 6HR MAX TEMP:  51;

GALESBURG      FOG       49  49  99 CALM      30.06S VSB<1/4
JACKSONVILLE   FOG       56  55  95 CALM      30.08S VSB 1/2
6HR MIN TEMP:  52; 6HR MAX TEMP:  56;

LACON          PTCLDY    40  39  95 CALM      30.07S FOG
6HR MIN TEMP:  40; 6HR MAX TEMP:  54;

LAWRENCEVILLE  CLOUDY    51  48  89 SE5       30.11F
6HR MIN TEMP:  44; 6HR MAX TEMP:  51; 6HR PCP: TRACE;

LITCHFIELD     CLEAR     49  47  90 W3        30.09R
$$


CITY           SKY/WX    TMP DP  RH WIND       PRES   REMARKS
LINCOLN        PTCLDY    44  43  95 CALM      30.07R FOG
6HR MIN TEMP:  44; 6HR MAX TEMP:  55;

MACOMB         FOG       49  49 100 CALM      30.08F VSB<1/4
MATTOON        PTCLDY    50  44  80 S6        30.08F
6HR MIN TEMP:  50; 6HR MAX TEMP:  53;

MT CARMEL AP   CLOUDY    54  50  87 CALM      30.11S
OLNEY-NOBLE AP MOCLDY    48  45  87 CALM      30.11S
PARIS          CLOUDY    50  47  92 CALM      30.10S
6HR MIN TEMP:  42; 6HR MAX TEMP:  50;

PEORIA         PTCLDY    46  42  86 CALM      30.08R FOG
6HR MIN TEMP:  46; 6HR MAX TEMP:  56;

PONTIAC        FOG       43  43 100 CALM      30.08S VSB 1
RANTOUL        PTCLDY    47  46  95 CALM      30.08S FOG
6HR MIN TEMP:  46; 6HR MAX TEMP:  52;

ROBINSON       CLOUDY    53  49  86 SE3       30.11F
6HR MIN TEMP:  44; 6HR MAX TEMP:  53;

SPRINGFIELD    FOG       54  53  97 CALM      30.09R VSB 1/2
6HR MIN TEMP:  47; 6HR MAX TEMP:  54;

TAYLORVILLE    CLOUDY    52  50  93 W7        30.09R
$$

...REGIONAL REPORTS...


CITY           SKY/WX    TMP DP  RH WIND       PRES   REMARKS
CHICAGO O`HARE CLOUDY    53  45  74 W3        30.04F
KANKAKEE       MOCLDY    45  44  95 S5        30.07F
MOLINE         FOG       50  49  96 E3        30.05F VSB 3/4
MOUNT VERNON   CLOUDY    48  45  87 CALM      30.12S
PITTSFIELD     FOG       56  54  94 CALM      30.09S VSB 1/2
QUINCY         FOG       55  54  96 CALM      30.07S VSB 1/4
ROCKFORD       FOG       47  45  93 CALM      30.08S VSB 1
$$


CITY           SKY/WX    TMP DP  RH WIND       PRES   REMARKS
BURLINGTON     FOG       53  53 100 S3        30.06S VSB 1/4
CEDAR RAPIDS   FOG       45  45 100 S7        30.01F VSB 1/8
DES MOINES     FOG       59  57  93 S10       29.98F VSB 1/8
KIRKSVILLE     FOG       55  55 100 S5        30.06F VSB 1/4
OTTUMWA        FOG       54  53  97 S6        30.03F VSB 1/4
ST LOUIS       MOCLDY    54  49  83 W6        30.10S
$$


CITY           SKY/WX    TMP DP  RH WIND       PRES   REMARKS
TERRE HAUTE    CLOUDY    48  45  89 SE5       30.10F
EVANSVILLE     CLOUDY    49  46  90 CALM      30.13S
INDIANAPOLIS   PTCLDY    41  38  89 SW3       30.10S
LAFAYETTE      CLOUDY    47  45  93 CALM      30.09F
MADISON        FOG       49  48  97 CALM      30.03F VSB 1
MILWAUKEE      CLOUDY    51  49  92 W6        30.04S FOG
$$





USA.gov is the U.S. government's official web portal to all federal, state and local government web resources and services.